This is the latest recevied weather packets stored in our database for station/object KB3AWQ. If no packets are shown the sender has not sent any weather packets the latest 10 day(s).
| Time | Temp. | Humidity | Pressure | Rain* | Wind** | Luminosity | Snow |
|---|---|---|---|---|---|---|---|
| 1777834167 | 15.56° C | 41% | 1012.6 hPa | 0 mm | - | 922 W/m² | - |
| 1777833866 | 15.56° C | 40% | 1012.6 hPa | 0 mm | - | 488 W/m² | - |
| 1777833568 | 15.56° C | 40% | 1012.7 hPa | 0 mm | - | 349 W/m² | - |
| 1777833267 | 15.56° C | 41% | 1012.6 hPa | 0 mm | - | 757 W/m² | - |
| 1777832966 | 15.56° C | 39% | 1012.7 hPa | 0 mm | - | 794 W/m² | - |
| 1777832666 | 15.56° C | 41% | 1012.7 hPa | 0 mm | - | 411 W/m² | - |
| 1777832366 | 15.56° C | 39% | 1012.7 hPa | 0 mm | - | 462 W/m² | - |
| 1777832066 | 15.56° C | 41% | 1012.7 hPa | 0 mm | - | 999 W/m² | - |
| 1777831767 | 15.56° C | 40% | 1012.6 hPa | 0 mm | - | 259 W/m² | - |
| 1777831467 | 15.56° C | 39% | 1012.6 hPa | 0 mm | - | 344 W/m² | - |
| 1777831166 | 15.56° C | 39% | 1012.8 hPa | 0 mm | - | 905 W/m² | - |
| 1777830866 | 15.56° C | 39% | 1012.7 hPa | 0 mm | - | 422 W/m² | - |
| 1777830566 | 15.56° C | 40% | 1012.9 hPa | 0 mm | - | 910 W/m² | - |
| 1777830266 | 15° C | 41% | 1012.9 hPa | 0 mm | - | 975 W/m² | - |
| 1777829967 | 15° C | 38% | 1012.9 hPa | 0 mm | - | 764 W/m² | - |
| 1777829668 | 14.44° C | 41% | 1013 hPa | 0 mm | - | 1151 W/m² | - |
| 1777829366 | 14.44° C | 42% | 1013.1 hPa | 0 mm | - | 1160 W/m² | - |
| 1777829068 | 13.89° C | 42% | 1013.2 hPa | 0 mm | - | 306 W/m² | - |
| 1777828766 | 13.89° C | 45% | 1013.3 hPa | 0 mm | - | 514 W/m² | - |
| 1777828467 | 13.89° C | 43% | 1013.4 hPa | 0 mm | - | 331 W/m² | - |
| 1777828166 | 14.44° C | 41% | 1013.3 hPa | 0 mm | - | 296 W/m² | - |
| 1777827866 | 15° C | 39% | 1013.7 hPa | 0 mm | - | 313 W/m² | - |
| 1777827566 | 14.44° C | 42% | 1013.7 hPa | 0 mm | - | 279 W/m² | - |
| 1777827267 | 14.44° C | 40% | 1013.8 hPa | 0 mm | - | 854 W/m² | - |
| 1777826966 | 13.89° C | 41% | 1013.8 hPa | 0 mm | - | 908 W/m² | - |
* Rain latest hour (hover to see other rain measurements)
** Current wind speed in m/s (hover to see current wind gust speed)